Find Starlink 11665

NORAD ID: 63549 Int'l Des: 2025-075 Owner: SPXS Country: US Constellation: starlink operational
LEOCIRCULAR

Live Position

Loading 3D Globe...

About Starlink 11665

Description loading...

Upcoming Passes

Passes for default location (London). Set your location on the main map for personalized predictions.

Altitude History

Loading altitude history...

Two-Line Element Set

1 63549U 25075B 26106.48583690 .00161677 00000-0 12340-2 0 9994
2 63549 42.9986 285.9187 0001959 246.6095 113.4567 15.70938782 59194
Epoch: Apr 16, 2026 • Age: 28 hours

Current Status

Altitude 359.4 km
Velocity 7.70 km/s
Sub-Earth Point 42.70°N, 79.13°W
Launch Date Apr 13, 2025
Age 1 years
Type internet

Technical Details

Classification Payload
Mass 960.00 kg
Dry Mass 910.00 kg
Total Mass 960.00 kg
Length 0.30 m
Diameter 4.10 m
Span 29.00 m
Shape Box + pan
Manufacturer SPXS
Bus Type Starlink V2MD
Phase Status In Orbit
Owner/State SPXS/US

Most Searched